Miscellaneous Local Product
Issued by NWS North Platte, NE

Home | Current Version | Previous Version | Text Only | Print | Product List | Glossary On
Versions: 1 2 3 4 5 6 7 8 9 10 11 12 13 14 15 16 17 18 19 20 21 22 23 24 25 26 27 28 29 30 31 32 33 34 35 36 37 38 39 40 41 42 43 44 45 46 47 48 49 50
000
AXUS43 KLBF 200110
MISLBF


WESTERN AND NORTH CENTRAL NEBRASKA HOURLY WEATHER ROUNDUP
NATIONAL WEATHER SERVICE NORTH PLATTE NE
700 PM CST MON FEB 19 2018

NOTE: "FAIR" INDICATES FEW OR NO CLOUDS BELOW 12,000 FEET WITH NO
SIGNIFICANT WEATHER AND/OR OBSTRUCTIONS TO VISIBILITY.

NOTE: STATIONS NOT REPORTING VARIABLES SUCH AS SKY/WEATHER OR
PRESSURE ARE PROVIDED BY RAWS AND APRS NETWORKS AND ARE NOT UNDER
NATIONAL WEATHER SERVICE QUALITY CONTROL.

...OBSERVATIONS IN AND NEAR THE EASTERN PANHANDLE OF NEBRASKA...

CITY           SKY/WX    TMP DP  RH WIND       PRES   REMARKS
PINE RIDGE     LGT SNOW   1  -3  83 N10       29.91R VSB 1   WCI -15
GORDON         LGT SNOW   2  -4  78 N14       29.85R WCI -16
CHADRON        LGT SNOW   1  -3  83 NE14      29.91F FOG     WCI -17
ALLIANCE       LGT SNOW   2  -3  80 N16       29.78S WCI -18
SIDNEY         LGT SNOW   5   0  79 N15       29.74R WCI -13
$$

...OBSERVATIONS IN NORTHERN NEBRASKA AND FAR SOUTHERN SOUTH DAKOTA...

CITY           SKY/WX    TMP DP  RH WIND       PRES   REMARKS
WINNER         LGT SNOW  10   5  80 N17       29.93F WCI  -8
VALENTINE      LGT SNOW   7   1  76 N15G23    29.89F WCI -10
AINSWORTH      CLOUDY     8   5  89 N14G23    29.87S FOG     WCI  -9
O`NEILL        FLURRIES  11   8  88 N17G23    29.88F WCI  -6
THEDFORD       CLOUDY     8   4  86 N15       29.85R WCI -10
BROKEN BOW     LGT SNOW  11   6  81 N17       29.84R WCI  -6
ORD            LGT SNOW  12   8  84 N13       29.86R FOG     WCI  -3
ALBION         FLURRIES  15  11  84 N9        29.88R WCI   3
$$

...OBSERVATIONS IN SOUTHWEST NEBRASKA AND FAR NORTHEAST COLORADO...

CITY           SKY/WX    TMP DP  RH WIND       PRES   REMARKS
WRAY           CLOUDY    14   9  79 NE12      29.74R WCI   0
HOLYOKE        FLURRIES  14   9  79 NE15      29.75S WCI  -1
IMPERIAL       FLURRIES  11   7  84 NE13      29.78S WCI  -4
OGALLALA       LGT SNOW  11   7  83 N15       29.81R WCI  -5
NORTH PLATTE   FLURRIES  10   5  80 NE14      29.84R WCI  -6
MCCOOK         LGT SNOW  15  11  83 N13       29.83R FOG     WCI   1
LEXINGTON      FLURRIES  14   9  81 N10       29.85R WCI   1
GOTHENBURG       N/A     12   7  81 N7          N/A  WCI   1
CALLAWAY         N/A      9   6  88 NE12        N/A  WCI  -6
$$

...OBSERVATIONS IN CENTRAL LINCOLN COUNTY AREA...

CITY           SKY/WX    TMP DP  RH WIND       PRES   REMARKS
N.P. AIRPORT   FLURRIES  10   5  80 NE14      29.84R WCI  -6
$$

...OBSERVATIONS ACROSS THE ROCKIES AND WESTERN HIGH PLAINS...

CITY           SKY/WX    TMP DP  RH WIND       PRES   REMARKS
RAPID CITY     LGT SNOW   0  -5  79 N15       29.98R WCI -19
SCOTTSBLUFF    LGT SNOW   4  -3  73 E13       29.75F WCI -13
CHEYENNE       LGT SNOW   0  -4  83 NE9       29.56F VSB 1   WCI -15
DENVER         LGT SNOW   9   5  84 NE12      29.60R VSB 3/4 WCI  -6
BERTHOUD PASS  SNOW      14   3  62 W26G47    29.29F VSB 1/2 WCI  -6
COPPER MTN     SNOW      21  14  73 S20G36    29.33R VSB<1/4 WCI   6
MONARCH PASS     N/A     19  18  93 SW54G62   29.41R WCI  -4
ASPEN          SNOW      25  24  96 N9        29.36R VSB 1/2 WCI  15
LARAMIE        LGT SNOW  -2  -5  87 NW22      29.41F FOG     WCI -26
CASPER         CLOUDY    -2  -7  79 N12       29.72S WCI -20
$$

...OBSERVATIONS ACROSS THE NORTHERN PLAINS...

CITY           SKY/WX    TMP DP  RH WIND       PRES   REMARKS
BISMARCK       LGT SNOW   4  -2  76 N12       30.16S WCI -12
FARGO          CLOUDY     6   0  76 N21G31    30.15S WCI -14
PIERRE         FLURRIES   8   4  83 N15       30.02R WCI  -9
SIOUX FALLS    LGT SNOW  15  12  88 NE13      29.90R FOG     WCI   1
$$

...OBSERVATIONS ACROSS THE CENTRAL AND SOUTHERN PLAINS...

CITY           SKY/WX    TMP DP  RH WIND       PRES   REMARKS
OMAHA          FRZ DRZL  22  20  92 NW15      29.86F WCI   9
GRAND ISLAND   FLURRIES  15  11  83 N16       29.86S WCI  -1
KANSAS CITY    CLOUDY    31  28  89 NW7       29.83R WCI  24
WICHITA        CLOUDY    32  25  75 NE12      29.79S WCI  23
DODGE CITY     PTCLDY    30  16  56 NE10      29.71S WCI  21
OKLAHOMA CITY  CLOUDY    46  39  76 N9        29.73F
DALLAS         CLOUDY    76  65  68 S21G29    29.78R
AMARILLO       CLOUDY    64  33  31 S18       29.63R
$$




USA.gov is the U.S. government's official web portal to all federal, state and local government web resources and services.